FDX135 KLAX-KJFK

Flight info

Callsign FDX135
Flight time N/A
Altitude 35000
Route DOTSS2 CLEEE PKE J134 DRK KA33Q KA36S KA39U KA42W GCK SPI WWODD RINTE KLYNE Q29 WWSHR JHW Q476 WLKES PUCKY1
Aircraft MD11/H-SDE1E2E3FGHIJ2J3J4J5M1RWXY/LB1D1

Departure

Time 2026-05-01 13:01
Airport Los Angeles International Airport (KLAX)

Arrival

Time N/A
Airport John F. Kennedy International Airport (KJFK)
Time Latitude Longitude Altitude Speed Heading
2026-05-01 12:40 33.93395 -118.38902 100 ft 0 kts 174°
2026-05-01 12:48 33.93404 -118.38903 100 ft 3 kts 174°
2026-05-01 12:48 33.93423 -118.38905 100 ft 3 kts 174°
2026-05-01 12:48 33.93441 -118.38908 100 ft 3 kts 174°
2026-05-01 12:49 33.93460 -118.38910 100 ft 3 kts 174°
2026-05-01 12:49 33.93478 -118.38913 101 ft 3 kts 174°
2026-05-01 12:49 33.93496 -118.38915 100 ft 3 kts 174°
2026-05-01 12:49 33.93514 -118.38917 100 ft 0 kts 174°
2026-05-01 12:52 33.93500 -118.38909 99 ft 5 kts 146°
2026-05-01 12:52 33.93502 -118.38859 102 ft 7 kts 49°
2026-05-01 12:53 33.93571 -118.38676 101 ft 17 kts 83°
2026-05-01 12:53 33.93585 -118.38540 103 ft 16 kts 83°
2026-05-01 12:53 33.93597 -118.38415 102 ft 14 kts 83°
2026-05-01 12:54 33.93618 -118.38320 103 ft 8 kts 57°
2026-05-01 12:54 33.93626 -118.38308 102 ft 0 kts 49°
2026-05-01 12:54 33.93636 -118.38297 103 ft 3 kts 40°
2026-05-01 12:55 33.93699 -118.38288 104 ft 6 kts 348°
2026-05-01 12:55 33.93730 -118.38324 106 ft 7 kts 293°
2026-05-01 12:55 33.93729 -118.38356 106 ft 0 kts 263°
2026-05-01 12:56 33.93729 -118.38359 106 ft 1 kts 263°
2026-05-01 12:56 33.93728 -118.38366 106 ft 0 kts 263°
2026-05-01 12:59 33.93723 -118.38419 105 ft 30 kts 263°
2026-05-01 13:00 33.93522 -118.40290 122 ft 177 kts 262°
2026-05-01 13:00 33.93351 -118.41820 582 ft 188 kts 263°
2026-05-01 13:01 33.93191 -118.45000 1740 ft 195 kts 263°
2026-05-01 13:01 33.92754 -118.46489 2068 ft 190 kts 231°
2026-05-01 13:01 33.90434 -118.47734 3391 ft 201 kts 187°
2026-05-01 13:02 33.88942 -118.47935 3552 ft 228 kts 187°
2026-05-01 13:07 33.64440 -118.18384 15365 ft 397 kts 86°
2026-05-01 13:07 33.64463 -118.15047 15931 ft 402 kts 86°
2026-05-01 13:07 33.64476 -118.11674 16508 ft 407 kts 87°
2026-05-01 13:08 33.64481 -118.08259 17071 ft 412 kts 87°
2026-05-01 13:08 33.64482 -118.04807 17631 ft 417 kts 87°
2026-05-01 13:08 33.64480 -118.01308 18178 ft 422 kts 87°
2026-05-01 13:08 33.64477 -117.97771 18671 ft 426 kts 87°
2026-05-01 13:09 33.64472 -117.94201 19158 ft 430 kts 87°
2026-05-01 13:09 33.64467 -117.90584 19616 ft 435 kts 87°
2026-05-01 13:09 33.64460 -117.86936 20103 ft 438 kts 87°
2026-05-01 13:09 33.64452 -117.83266 20584 ft 442 kts 87°
2026-05-01 13:10 33.64564 -117.79577 21036 ft 443 kts 81°
2026-05-01 13:10 33.65029 -117.75916 21505 ft 445 kts 76°
2026-05-01 13:10 33.65688 -117.72278 21984 ft 447 kts 73°
2026-05-01 13:10 33.66422 -117.68636 22451 ft 451 kts 73°
2026-05-01 13:11 33.67174 -117.64968 22910 ft 454 kts 73°
2026-05-01 13:11 33.67921 -117.61265 23370 ft 458 kts 73°
2026-05-01 13:11 33.68659 -117.57523 23795 ft 462 kts 73°
2026-05-01 13:11 33.69379 -117.53792 24181 ft 465 kts 73°
2026-05-01 13:12 33.70105 -117.49991 24523 ft 469 kts 73°
2026-05-01 13:12 33.70832 -117.46155 24906 ft 472 kts 73°
2026-05-01 13:12 33.71560 -117.42299 25263 ft 476 kts 73°
2026-05-01 13:12 33.72292 -117.38412 25619 ft 479 kts 73°
2026-05-01 13:13 33.73028 -117.34502 25935 ft 476 kts 73°